• Join FlightAware (Why Join?)
  • Login
  • US Flag 
10:47AM EST


 

Airport Tracker/Info


-or-


 

Live Flight TrackerFlight Track Log ✈ N225SB ✈ 06-Nov-2013 ✈ KSYR - KBED

Flight Track Log - Related Links

Times and Time Zones

All times are in EST time to prevent confusion due to time zone crossing. See the N225SB flight status page for this flight to view local times or setup timezone preferences in your user account.

Time Position Orientation Groundspeed Altitude Reporting Facility
EST Latitude Longitude Course Direction KTS MPH feet Rate Location/Type
11:28AM 43.1044 -76.0886 131° Southeast 171 197 900  Level Boston Center
11:29AM 43.0619 -76.0228 131° Southeast 244 281 3,700 3,250 Climbing Boston Center
11:30AM 43.0111 -75.9361 129° Southeast 246 283 7,400 3,532 Climbing Boston Center
11:31AM 42.9614 -75.8456 127° Southeast 298 343 11,000 3,024 Climbing Boston Center
11:32AM 42.9092 -75.7500 127° Southeast 317 365 13,700 2,579 Climbing Boston Center
11:33AM 42.9019 -75.6144 94° East 363 418 16,200 2,400 Climbing Boston Center
11:34AM 42.8894 -75.4775 97° East 364 419 18,500 2,226 Climbing Boston Center
11:35AM 42.8797 -75.3414 96° East 364 419 20,800 2,160 Climbing Boston Center
11:36AM 42.8672 -75.2022 97° East 367 422 23,000 1,934 Climbing Boston Center
11:37AM 42.8564 -75.0644 96° East 381 438 24,700 1,000 Climbing Boston Center
11:38AM 42.8389 -74.8842 97° East 431 496 25,000 145 Climbing Boston Center
11:39AM 42.8242 -74.7036 96° East 474 545 25,000  Level Boston Center
11:40AM 42.8064 -74.5189 97° East 490 564 25,000  Level Boston Center
11:41AM 42.7867 -74.3292 98° East 501 577 25,000  Level Boston Center
11:42AM 42.7681 -74.1361 97° East 511 588 25,000  Level Boston Center
11:43AM 42.7489 -73.9461 98° East 511 588 25,000  Level Boston Center
11:44AM 42.7303 -73.7547 97° East 510 587 25,000 -242 Level Boston Center
11:46AM 42.7067 -73.5256 98° East 512 589 24,500 -1,258 Descending Boston Center
11:47AM 42.6872 -73.3369 98° East 506 582 22,400 -1,721 Descending Boston Center
11:48AM 42.6689 -73.1589 98° East 481 554 21,000 -689 Descending Boston Center
11:49AM 42.6517 -72.9928 98° East 445 512 21,000 -590 Level Boston Center
11:50AM 42.6317 -72.8164 99° East 439 505 19,800 -1,597 Descending Boston Center
11:51AM 42.6142 -72.6525 98° East 465 535 17,700 -1,902 Descending Boston Center
11:52AM 42.6300 -72.4872 83° East 445 512 15,900 -2,050 Descending Boston Center
11:53AM 42.6475 -72.3283 81° East 432 497 13,600 -2,274 Descending Boston Center
11:54AM 42.6692 -72.1747 79° East 380 437 11,200 -2,064 Descending Boston Center
11:55AM 42.6586 -72.0528 97° East 327 376 9,300 -1,033 Descending Boston Center
11:56AM 42.6189 -71.9431 116° Southeast 303 349 9,100 -99 Descending Boston Center
11:57AM 42.5847 -71.8411 114° Southeast 300 345 9,100 -545 Level Boston Center
11:58AM 42.5500 -71.7408 115° Southeast 299 344 8,000 -1,597 Descending Boston Center
11:59AM 42.5189 -71.6314 111° Southeast 286 329 5,800 -2,097 Descending Boston Center
11:59AM 42.5167 -71.5500 92° East 299 344 4,400 -1,302 Descending KA90
12:01PM 42.5333 -71.4500 77° East 240 276 3,500 -619 Descending KA90
12:02PM 42.5667 -71.3667 61° Northeast 202 232 3,100 -250 Descending KA90
12:03PM 42.6000 -71.3000 56° Northeast 193 222 3,000 -571 Descending KA90
12:04PM 42.6167 -71.2333 71° East 198 228 1,900 -524 Descending KA90
12:05PM 42.6000 -71.1667 109° East 192 221 1,900 100 Level KA90
12:06PM 42.5667 -71.1667 180° South 179 206 2,100 -157 Climbing KA90
12:07PM 42.5500 -71.2167 246° West 170 196 1,600 -522 Descending KA90
12:08PM 42.5167 -71.2500 216° Southwest 127 146 1,100 -550 Descending KA90
12:09PM 42.4833 -71.2667 200° South 124 143 500 -600 Descending KA90
12:11PM 42.4667 -71.2833 180° South  Level FlightAware Approximate